ATLAS 5 CENTAUR DEB, 44685

Orbit data source: Space-Track

ATLAS 5 CENTAUR DEB, 44685 is space debris in HEO originally from a launch on Wed, 17 Oct 2018 UTC launched from the Air Force Eastern Test Range (AFETR). Debris objects in space refer to the collection of defunct objects orbiting the Earth. Examples of debris include non-operational satellites, rocket bodies, and fragments generated from explosions, collisions, or faulty payload assembly.

Loading next visibility...
Identifier
44685, 2018-079AX
Orbit
HEO
Country
Flag of USUS
Related business
Flag of USUnited Launch Alliance/Lockheed Martin (US)
Manufacturer
ULA Decatur
Mission
Spacecraft
Bus & Motor
Unknown
Mass
Unknown
Launch date (UTC)
2018-10-17 (8 years ago)
Launch vehicle
Unknown
Launch site
Air Force Eastern Test Range (AFETR)
Object type
Payload
Rocket body
Debris
Shape & HBR
Unknown shape, 1.1 m
Radar Cross Section
Medium (>0.1 m² and <1 m²)

Expand to show TLE details & history
Last TLE update: 1 day ago

TLE from 1 day ago
0 ATLAS 5 CENTAUR DEB
1 44685U 18079AX  26248.53882330 -.00000140  00000-0  00000+0 0  9991
2 44685  12.7526  69.0268 4526688 246.4253  60.4861  1.69265648 44862
Epoch: 2026-09-05T12:55Z
TLE epoch observation values (Epoch: 2026-09-05T12:55:54.333Z)
Latitude
-0.00001°
Longitude
-109.50769°
Altitude
22,480.798 km
Speed
3.771 km/s
True Right ascension
04h 36m 27s
True Declination
0° 00' 00"
Sunlit
Object was in daylight at epoch
Visualization orbit readout
Latitude
Unknown
Longitude
Unknown
Altitude
Unknown
Speed
Unknown
Apparent Right ascension
Unknown
Apparent Declination
Unknown
Sunlit
N/A
Visualization observer readout
Local Sidereal Time
12:29:39
Azimuth
Unknown
Elevation
Unknown
Doppler factor
Unknown
Orbital elements
Apogee altitude
36,828.564 km
Perigee altitude
9,901.124 km
Semi-major axis
29,742.981 km
Eccentricity
0.45267
Inclination
12.7526°
RAAN
69.0268°
Arg. of periapsis
246.4253°
True anomaly
113.63101°
Mean anomaly
60.4861°
Eccentric anomaly
86.37008°
Mean motion
0.42312 °/min
Orbital period
850.82 mins
BSTAR
0
Loading maneuver chart data...
Computing Atmospheric mass density...

Documentation

Showing up to 5 results
|